Regional Weather Roundup
Issued by NWS

Home | Current Version | Previous Version | Text Only | Print | Product List | Glossary Off
Versions: 1 2 3 4 5 6 7 8 9 10 11 12 13 14 15 16 17 18 19 20 21 22 23 24 25 26 27 28 29 30 31 32 33 34 35 36 37 38 39 40 41 42 43 44 45 46 47 48 49 50

000
ASUS43 KMPX 271310
RWRMN
WEATHER ROUNDUP FOR MINNESOTA
NATIONAL WEATHER SERVICE TWIN CITIES/CHANHASSEN MN
800 AM CDT SAT MAY 27 2017


NOTE: "FAIR" INDICATES FEW OR NO CLOUDS BELOW 12,000 FEET WITH NO
SIGNIFICANT WEATHER AND/OR OBSTRUCTIONS TO VISIBILITY. N/A MEANS
CURRENT SKY AND/OR WEATHER CONDITIONS ARE NOT AVAILABLE.

MNZ060>063-068>070-271400-
   Twin Cities Metro

CITY           SKY/WX    TMP DP  RH WIND       PRES   REMARKS
TWIN CITIES    MOSUNNY   63  49  60 NW3       29.88F
ST PAUL        MOSUNNY   61  52  72 CALM      29.89S
CRYSTAL          N/A     60  48  64 NW5       29.88S
BLAINE         MOSUNNY   59  52  77 CALM      29.88S
LAKEVILLE      SUNNY     61  48  63 NW6       29.88S
EDEN PRAIRIE   SUNNY     62  49  62 NW5       29.88S
SOUTH ST PAUL  SUNNY     61  51  69 CALM      29.88S
LAKE ELMO      FAIR      59  52  77 NW5       29.89S
$$
MNZ001>005-007-008-013>017-022>024-027-028-271400-
   Northwest Minnesota

CITY           SKY/WX    TMP DP  RH WIND       PRES   REMARKS
BEMIDJI        SUNNY     56  45  65 SW7       29.82S
HALLOCK        MOSUNNY   55  45  67 SW6       29.75S
ROSEAU         MOSUNNY   55  48  76 S12       29.76R
WARROAD        MOSUNNY   55  48  76 S5        29.76S
THIEF RVR FALL SUNNY     55  42  61 SW9       29.80S
CROOKSTON      MOSUNNY   55  45  67 W6        29.79F
FOSSTON        SUNNY     55  43  62 SW9       29.82S
DETROIT LAKES  SUNNY     57  45  62 SW7       29.86R
MOORHEAD       SUNNY     57  45  62 SW7       29.84F
PARK RAPIDS    CLOUDY    56  44  64 SW8       29.85R
MAHNOMEN       FAIR      55  45  68 SW13      29.83R
$$
MNZ006-009>011-018-025>026-271400-
   North Central Minnesota

CITY           SKY/WX    TMP DP  RH WIND       PRES   REMARKS
BAUDETTE       MOSUNNY   53  45  74 SW7       29.77S
FLAG ISLAND    CLOUDY    52  45  76 S3        29.74R
INTL FALLS     SUNNY     56  45  66 W10       29.78S
WASKISH        MOSUNNY   57  46  67 CALM      29.80S
BIG FORK       MOSUNNY   55  48  76 SW5       29.82S
LONGVILLE      PTSUNNY   54  48  82 SW3       29.84S
GRAND RAPIDS   CLOUDY    54  46  74 S3        29.86R
CRANE LAKE     CLOUDY    52  48  87 CALM      29.82R
ORR            MOSUNNY   52  43  71 CALM      29.79S
COOK           CLOUDY    54  46  76 CALM      29.82S
WALKER         FAIR      54  46  75 SW5       29.84S
$$
MNZ012-019>021-037-271400-
   Northeast Minnesota

CITY           SKY/WX    TMP DP  RH WIND       PRES   REMARKS
DULUTH         CLOUDY    59  46  62 W7        29.84S
ELY            CLOUDY    52  48  87 SW3       29.81F
HIBBING        CLOUDY    49  47  93 CALM      29.83S
EVELETH        CLOUDY    53  47  82 CALM      29.84S
DULUTH HARBOR  CLOUDY    55  52  88 S6        29.84S
TWO HARBORS    MOSUNNY   63  50  63 W5        29.80F
SILVER BAY     CLOUDY    55  54  94 CALM      29.80S
GRAND MARAIS     N/A     43  42  97 SW9       29.80F
G MARAIS ARPRT CLOUDY    57  45  62 NW5       29.81F
$$
MNZ029>031-032-039>041-046>048-054>057-064-271400-
   West Central Minnesota

CITY           SKY/WX    TMP DP  RH WIND       PRES   REMARKS
FERGUS FALLS   MOSUNNY   54  46  76 S7        29.86S
WHEATON        CLOUDY    57  46  67 SW6       29.89S
MORRIS         CLOUDY    57  48  72 SW5       29.88S
ALEXANDRIA     MOSUNNY   54  47  77 SW7       29.89S
ELBOW LAKE     FAIR      53  49  86 CALM      29.88S
WADENA         CLOUDY    54  46  76 W5        29.86S
GLENWOOD       PTSUNNY   55  48  76 SW5       29.89
APPLETON       CLOUDY    57  48  72 SW3       29.88S
BENSON           N/A     54  50  87 CALM      29.90F
ORTONVILLE     PTSUNNY   55  46  71 SW5       29.88S
MADISON        CLOUDY    57  52  82 SW3       29.89S
WILLMAR        FAIR      55  50  82 CALM      29.90F
$$
MNZ033>034-036-042>043-049>051-058-059-271400-
   Central Minnesota

CITY           SKY/WX    TMP DP  RH WIND       PRES   REMARKS
ST CLOUD       CLOUDY    59  51  75 CALM      29.89R
SAUK CENTRE    FAIR      56  48  74 CALM      29.89S
PAYNESVILLE    PTSUNNY   56  48  76 CALM      29.90S
AITKIN         CLOUDY    54  48  82 SW3       29.85R
PINE RIVER     CLOUDY    54  46  76 CALM      29.89S
BRAINERD       CLOUDY    53  48  83 S3        29.87R
STAPLES        CLOUDY    54  45  71 SW3       29.87S
LONG PRAIRIE   FAIR      54  46  76 S5        29.89S
LITTLE FALLS   CLOUDY    54  45  71 CALM      29.88S
LITCHFIELD     CLOUDY    61  52  72 W3        29.90S
BUFFALO        SUNNY     58  48  68 CALM      29.91R
MAPLE LAKE     CLOUDY    61  51  70 W3        29.90S
HUTCHINSON     MOSUNNY   58  50  74 W3        29.91R
$$
MNZ037-044-045-052-053-271400-
   East Central Minnesota

CITY           SKY/WX    TMP DP  RH WIND       PRES   REMARKS
PRINCETON      SUNNY     61  50  67 W3        29.89R
MORA           SUNNY     55  46  71 W3        29.90R
CAMBRIDGE      MOSUNNY   61  46  59 SW3       29.87R
RUSH CITY      SUNNY     59  49  69 CALM      29.89R
MOOSE LAKE     MOSUNNY   54  46  76 CALM      29.85R
HINCKLEY       FAIR      55  50  82 W5        29.88R
CLOQUET        MOSUNNY   57  46  67 W5        29.84S
MCGREGOR       CLOUDY    55  46  71 SW3       29.87R
$$
MNZ071>073-080-081-089-090-097-098-271400-
   Southwest Minnesota

CITY           SKY/WX    TMP DP  RH WIND       PRES   REMARKS
MONTEVIDEO     CLOUDY    57  48  72 W5        29.90R
CANBY          CLOUDY    59  49  68 CALM      29.91S
MARSHALL       CLOUDY    58  50  75 S7        29.91R
REDWOOD FALLS  CLOUDY    59  48  67 CALM      29.90R
OLIVIA         CLOUDY    57  50  77 CALM      29.89S
PIPESTONE      CLOUDY    55  46  71 W5        29.94R
WINDOM         CLOUDY    55  50  82 CALM      29.92R
WORTHINGTON    CLOUDY    59  47  64 S3        29.94R
JACKSON        CLOUDY    57  50  77 CALM      29.92R
TRACY          CLOUDY    58  51  77 SW5       29.92S
SLAYTON        CLOUDY    57  50  78 SW3       29.94R
$$
MNZ065>067-074>077-082>085-091>093-271400-
   South Central Minnesota

CITY           SKY/WX    TMP DP  RH WIND       PRES   REMARKS
MANKATO          N/A     60  50  69 W3        29.91R
NEW ULM        PTSUNNY   55  48  76 W3        29.91S
ST JAMES       CLOUDY    57  52  82 NW3       29.91F
FAIRMONT       SUNNY     63  48  58 N5        29.91R
GLENCOE        MOSUNNY   60  54  79 CALM      29.90R
FARIBAULT      SUNNY     63  48  59 NW6       29.89S
OWATONNA       SUNNY     59  48  67 CALM      29.89S
WASECA         SUNNY     59  48  67 NW6       29.91R
ALBERT LEA     SUNNY     63  54  72 CALM      29.90S
$$
MNZ078>079-086>088-094>096-271400-
   Southeast Minnesota

CITY           SKY/WX    TMP DP  RH WIND       PRES   REMARKS
ROCHESTER      SUNNY     60  51  72 NW7       29.91R
RED WING       SUNNY     61  52  72 W5        29.87F
STANTON        SUNNY     61  49  66 CALM      29.88S
DODGE CENTER   SUNNY     61  48  63 NW7       29.90R
WINONA         SUNNY     61  57  88 NW3       29.88R
AUSTIN         SUNNY     61  52  72 CALM      29.90R
PRESTON        SUNNY     59  54  83 NW5       29.90R
$$
ABBREVIATIONS USED IN REMARKS
   TC - TEMPERATURES IN CELSIUS
  WCI - WIND CHILL INDEX
   HX - HEAT INDEX
  VSB - VISIBILITY
$$



USA.gov is the U.S. government's official web portal to all federal, state and local government web resources and services.